When you browse on this site, cookies collect data to enhance your experience and personalize the content and advertising you see.
Visit our Privacy Policy to learn more. By continuing to use the site, you agree to this use of cookies and data.
  • en France
  • Liste des pays
  • À 7 jours
  • Température de l'eau
  • Carte météo
  • Widgets météo
  • user-avatar
    Se connecter

    Météo par heure à Grand Bassam

    Ce jour, 1 Juin, Lundi

    Heure Température Précipitation Vent Pression Humidité
    00:00 +27°C° 0 mm 3 m/s 760 mmHg 90%
    01:00 +27°C° 0.2 mm 3 m/s 760 mmHg 90%
    02:00 +27°C° 0.2 mm 3 m/s 759 mmHg 90%
    03:00 +27°C° 0.2 mm 3 m/s 759 mmHg 91%
    04:00 +27°C° 0.5 mm 2 m/s 759 mmHg 91%
    05:00 +26°C° 0.5 mm 2 m/s 760 mmHg 92%
    06:00 +26°C° 0 mm 2 m/s 760 mmHg 91%
    07:00 +28°C° 0.2 mm 2 m/s 760 mmHg 85%
    08:00 +29°C° 0.2 mm 2 m/s 760 mmHg 78%
    09:00 +30°C° 0.2 mm 2 m/s 760 mmHg 72%
    10:00 +31°C° 0 mm 2 m/s 760 mmHg 69%
    11:00 +33°C° 0 mm 3 m/s 760 mmHg 67%
    12:00 +34°C° 0 mm 2 m/s 760 mmHg 65%
    13:00 +32°C° 0.2 mm 2 m/s 759 mmHg 65%
    14:00 +32°C° 0.2 mm 2 m/s 759 mmHg 65%
    15:00 +33°C° 0.2 mm 3 m/s 758 mmHg 66%
    16:00 +31°C° 0.2 mm 3 m/s 758 mmHg 71%
    17:00 +30°C° 0.2 mm 3 m/s 759 mmHg 76%
    18:00 +29°C° 0.2 mm 3 m/s 759 mmHg 81%
    19:00 +28°C° 0 mm 3 m/s 759 mmHg 83%
    20:00 +28°C° 0 mm 3 m/s 759 mmHg 85%
    21:00 +28°C° 0 mm 3 m/s 759 mmHg 87%
    22:00 +28°C° 0 mm 3 m/s 760 mmHg 88%
    23:00 +28°C° 0 mm 3 m/s 760 mmHg 88%

    Demain, 2 Juin, Mardi

    Heure Température Précipitation Vent Pression Humidité
    00:00 +28°C° 0 mm 3 m/s 760 mmHg 89%
    01:00 +27°C° 0 mm 3 m/s 760 mmHg 89%
    02:00 +27°C° 0 mm 3 m/s 759 mmHg 89%
    03:00 +27°C° 0 mm 2 m/s 759 mmHg 90%
    04:00 +27°C° 0 mm 2 m/s 759 mmHg 90%
    05:00 +27°C° 0 mm 2 m/s 759 mmHg 91%
    06:00 +27°C° 0 mm 2 m/s 759 mmHg 91%
    07:00 +28°C° 0 mm 2 m/s 760 mmHg 87%
    08:00 +29°C° 0 mm 3 m/s 760 mmHg 82%
    09:00 +30°C° 0 mm 3 m/s 760 mmHg 77%
    10:00 +31°C° 0 mm 3 m/s 760 mmHg 75%
    11:00 +32°C° 0 mm 4 m/s 760 mmHg 73%
    12:00 +33°C° 0 mm 4 m/s 759 mmHg 70%
    13:00 +33°C° 0 mm 4 m/s 758 mmHg 70%
    14:00 +32°C° 0 mm 4 m/s 758 mmHg 71%
    15:00 +32°C° 0 mm 4 m/s 757 mmHg 71%
    16:00 +32°C° 0 mm 4 m/s 757 mmHg 74%
    17:00 +30°C° 0 mm 4 m/s 757 mmHg 77%
    18:00 +29°C° 0 mm 4 m/s 758 mmHg 80%
    19:00 +29°C° 0 mm 4 m/s 758 mmHg 83%
    20:00 +29°C° 0 mm 3 m/s 759 mmHg 86%
    21:00 +28°C° 0 mm 3 m/s 759 mmHg 88%
    22:00 +28°C° 1.2 mm 3 m/s 759 mmHg 89%
    23:00 +28°C° 1.2 mm 3 m/s 759 mmHg 89%

    Après-demain, 3 Juin, Mercredi

    Heure Température Précipitation Vent Pression Humidité
    00:00 +28°C° 1.2 mm 3 m/s 759 mmHg 90%
    01:00 +28°C° 0.2 mm 3 m/s 758 mmHg 90%
    02:00 +28°C° 0.2 mm 3 m/s 758 mmHg 90%
    03:00 +28°C° 0.2 mm 3 m/s 757 mmHg 90%
    04:00 +27°C° 0 mm 2 m/s 758 mmHg 91%
    05:00 +27°C° 0 mm 2 m/s 758 mmHg 91%
    06:00 +27°C° 0 mm 1 m/s 758 mmHg 91%
    07:00 +28°C° 0 mm 2 m/s 759 mmHg 86%
    08:00 +30°C° 0 mm 2 m/s 759 mmHg 81%
    09:00 +31°C° 0 mm 3 m/s 759 mmHg 75%
    10:00 +31°C° 0 mm 3 m/s 759 mmHg 72%
    11:00 +33°C° 0 mm 4 m/s 759 mmHg 69%
    12:00 +34°C° 0 mm 4 m/s 759 mmHg 66%
    13:00 +33°C° 0.1 mm 4 m/s 758 mmHg 68%
    14:00 +33°C° 0.1 mm 5 m/s 758 mmHg 69%
    15:00 +33°C° 0.1 mm 5 m/s 757 mmHg 71%
    16:00 +32°C° 0 mm 5 m/s 757 mmHg 74%
    17:00 +30°C° 0 mm 5 m/s 757 mmHg 77%
    18:00 +29°C° 0 mm 5 m/s 757 mmHg 81%
    19:00 +29°C° 0.1 mm 5 m/s 758 mmHg 83%
    20:00 +29°C° 0.1 mm 5 m/s 759 mmHg 86%
    21:00 +28°C° 0.1 mm 5 m/s 759 mmHg 88%
    22:00 +28°C° 0.1 mm 5 m/s 759 mmHg 88%
    23:00 +28°C° 0.1 mm 4 m/s 759 mmHg 89%

    4 Juin, Jeudi

    Heure Température Précipitation Vent Pression Humidité
    00:00 +28°C° 0.1 mm 4 m/s 759 mmHg 90%
    01:00 +28°C° 0.2 mm 4 m/s 758 mmHg 91%
    02:00 +27°C° 0.2 mm 3 m/s 758 mmHg 91%
    03:00 +27°C° 0.2 mm 3 m/s 758 mmHg 92%
    04:00 +27°C° 0.7 mm 3 m/s 758 mmHg 92%
    05:00 +27°C° 0.7 mm 3 m/s 758 mmHg 92%
    06:00 +27°C° 0.7 mm 3 m/s 758 mmHg 92%
    07:00 +28°C° 0.2 mm 3 m/s 759 mmHg 86%
    08:00 +29°C° 0.2 mm 3 m/s 759 mmHg 81%
    09:00 +31°C° 0.2 mm 3 m/s 759 mmHg 75%
    10:00 +31°C° 1 mm 3 m/s 759 mmHg 74%
    11:00 +31°C° 1 mm 3 m/s 759 mmHg 73%
    12:00 +33°C° 1 mm 3 m/s 759 mmHg 72%
    13:00 +33°C° 0.1 mm 3 m/s 758 mmHg 70%
    14:00 +33°C° 0.1 mm 4 m/s 758 mmHg 68%
    15:00 +33°C° 0.1 mm 4 m/s 757 mmHg 65%
    16:00 +32°C° 0 mm 4 m/s 757 mmHg 70%
    17:00 +30°C° 0 mm 4 m/s 758 mmHg 75%
    18:00 +29°C° 0 mm 5 m/s 758 mmHg 79%
    19:00 +29°C° 0 mm 4 m/s 758 mmHg 81%
    20:00 +29°C° 0 mm 4 m/s 759 mmHg 83%
    21:00 +28°C° 0 mm 4 m/s 759 mmHg 85%
    22:00 +28°C° 0 mm 4 m/s 759 mmHg 86%
    23:00 +28°C° 0 mm 4 m/s 759 mmHg 88%

    5 Juin, Vendredi

    Heure Température Précipitation Vent Pression Humidité
    00:00 +28°C° 0 mm 4 m/s 759 mmHg 89%
    01:00 +28°C° 0 mm 4 m/s 758 mmHg 90%
    02:00 +27°C° 0 mm 3 m/s 758 mmHg 91%
    03:00 +27°C° 0 mm 3 m/s 758 mmHg 92%
    04:00 +27°C° 0.1 mm 3 m/s 758 mmHg 92%
    05:00 +27°C° 0.1 mm 2 m/s 758 mmHg 91%
    06:00 +27°C° 0.1 mm 2 m/s 759 mmHg 91%
    07:00 +28°C° 0.1 mm 2 m/s 759 mmHg 86%
    08:00 +29°C° 0.1 mm 2 m/s 760 mmHg 82%
    09:00 +30°C° 0.1 mm 2 m/s 760 mmHg 78%
    10:00 +30°C° 0 mm 2 m/s 760 mmHg 74%
    11:00 +31°C° 0 mm 2 m/s 759 mmHg 71%
    12:00 +33°C° 0 mm 3 m/s 759 mmHg 67%
    13:00 +33°C° 0 mm 3 m/s 759 mmHg 66%
    14:00 +33°C° 0 mm 3 m/s 758 mmHg 65%
    15:00 +33°C° 0 mm 3 m/s 758 mmHg 64%
    16:00 +31°C° 0 mm 3 m/s 758 mmHg 67%
    17:00 +31°C° 0 mm 3 m/s 758 mmHg 71%
    18:00 +30°C° 0 mm 3 m/s 758 mmHg 75%
    19:00 +29°C° 0 mm 3 m/s 758 mmHg 78%
    20:00 +29°C° 0 mm 3 m/s 759 mmHg 82%
    21:00 +28°C° 0 mm 3 m/s 759 mmHg 85%
    22:00 +28°C° 0 mm 3 m/s 759 mmHg 87%
    23:00 +28°C° 0 mm 3 m/s 758 mmHg 88%

    6 Juin, Samedi

    Heure Température Précipitation Vent Pression Humidité
    00:00 +28°C° 0 mm 3 m/s 758 mmHg 90%
    01:00 +28°C° 0.1 mm 3 m/s 758 mmHg 90%
    02:00 +28°C° 0.1 mm 3 m/s 758 mmHg 91%
    03:00 +27°C° 0.1 mm 3 m/s 758 mmHg 91%
    04:00 +27°C° 0.1 mm 2 m/s 758 mmHg 91%
    05:00 +27°C° 0.1 mm 2 m/s 759 mmHg 91%
    06:00 +27°C° 0.1 mm 1 m/s 759 mmHg 90%
    07:00 +29°C° 0.1 mm 1 m/s 759 mmHg 83%
    08:00 +31°C° 0.1 mm 1 m/s 760 mmHg 76%
    09:00 +30°C° 0.1 mm 0 m/s 760 mmHg 69%
    10:00 +32°C° 0.5 mm 1 m/s 760 mmHg 70%
    11:00 +32°C° 0.5 mm 2 m/s 760 mmHg 71%
    12:00 +33°C° 0.5 mm 3 m/s 760 mmHg 71%
    13:00 +31°C° 0.6 mm 3 m/s 759 mmHg 72%
    14:00 +32°C° 0.6 mm 4 m/s 758 mmHg 74%
    15:00 +32°C° 0.6 mm 4 m/s 758 mmHg 75%
    16:00 +30°C° 0.1 mm 4 m/s 758 mmHg 77%
    17:00 +30°C° 0.1 mm 4 m/s 758 mmHg 79%
    18:00 +29°C° 0.1 mm 4 m/s 758 mmHg 81%
    19:00 +29°C° 0.1 mm 4 m/s 759 mmHg 83%
    20:00 +28°C° 0.1 mm 4 m/s 759 mmHg 85%
    21:00 +28°C° 0.1 mm 4 m/s 760 mmHg 86%
    22:00 +28°C° 0.3 mm 4 m/s 759 mmHg 87%
    23:00 +28°C° 0.3 mm 4 m/s 759 mmHg 89%
    Voir plus